Location: Unspecified
(0.0000°N, 0.0000°E)
Time: 10:51:45
(UTC+00:00)

Vanguard 2 - Pass Details

Date: 15 October 2022
Orbit: 553 x 2933 km, 32.9° (Epoch: 29 November)

Event Time Altitude Azimuth Distance (km) Brightness Sun altitude
Rises 18:34:33 0° 289° (WNW) 6,303 13.4 -12.1°
Reaches altitude 10° 18:38:41 10° 284° (WNW) 5,487 13.0 -13.1°
Maximum altitude 18:55:10 50° 215° (SW) 3,466 11.0 -17.2°
Drops below altitude 10° 19:10:45 10° 143° (SE) 5,168 11.5 -21.0°
Sets 19:14:33 0° 137° (SE) 5,923 11.7 -21.9°
